QPF
0.06 0.06 0.07 0.06 0.05 0.05 0.06 0.07 0.09 0.08 0.05 0.03 0.03 0.03 0.03 0.03 0.05 0.06 0.05 0.06 0.07 0.08 0.09 0.11 0.12 0.11 0.10 0.11 0.13 0.14 0.11 0.08 0.05 0.04 0.03 0.02 0.03 0.04
0.06 0.05 0.05 0.05 0.06 0.07 0.07 0.08 0.10 0.11 0.10 0.06 0.05 0.04 0.04 0.05 0.06 0.07 0.07 0.06 0.07 0.09 0.10 0.11 0.13 0.14 0.13 0.12 0.11 0.10 0.09 0.07 0.05 0.03 0.03 0.03 0.03 0.04
0.08 0.06 0.05 0.05 0.05 0.06 0.07 0.08 0.10 0.11 0.12 0.09 0.06 0.06 0.07 0.07 0.07 0.08 0.09 0.07 0.07 0.10 0.11 0.11 0.12 0.14 0.16 0.13 0.09 0.06 0.06 0.05 0.05 0.04 0.04 0.03 0.03 0.03
0.10 0.11 0.10 0.09 0.09 0.08 0.08 0.09 0.10 0.11 0.13 0.12 0.10 0.09 0.09 0.08 0.08 0.10 0.12 0.12 0.10 0.13 0.14 0.14 0.14 0.14 0.14 0.12 0.08 0.06 0.06 0.05 0.04 0.04 0.04 0.03 0.03 0.03
0.09 0.11 0.11 0.11 0.11 0.11 0.11 0.12 0.12 0.12 0.13 0.14 0.14 0.13 0.13 0.12 0.13 0.15 0.17 0.17 0.15 0.16 0.17 0.17 0.16 0.14 0.11 0.10 0.09 0.07 0.05 0.05 0.05 0.05 0.03 0.03 0.03 0.04
0.09 0.09 0.10 0.11 0.10 0.10 0.10 0.11 0.11 0.12 0.13 0.14 0.15 0.15 0.15 0.16 0.17 0.20 0.21 0.19 0.17 0.16 0.17 0.16 0.14 0.13 0.11 0.09 0.07 0.06 0.05 0.04 0.06 0.06 0.03 0.02 0.03 0.04
0.09 0.09 0.09 0.10 0.10 0.10 0.10 0.10 0.11 0.12 0.12 0.13 0.13 0.14 0.14 0.15 0.17 0.18 0.20 0.21 0.19 0.16 0.15 0.14 0.11 0.10 0.09 0.08 0.07 0.05 0.05 0.05 0.06 0.06 0.04 0.02 0.03 0.03
0.09 0.09 0.09 0.09 0.10 0.10 0.10 0.11 0.11 0.12 0.12 0.12 0.11 0.11 0.11 0.13 0.16 0.18 0.19 0.18 0.17 0.14 0.13 0.13 0.11 0.10 0.09 0.08 0.07 0.06 0.05 0.06 0.07 0.07 0.06 0.04 0.04 0.05
0.09 0.09 0.09 0.08 0.08 0.08 0.09 0.10 0.10 0.10 0.11 0.12 0.12 0.11 0.11 0.12 0.15 0.17 0.18 0.16 0.14 0.12 0.12 0.13 0.12 0.10 0.08 0.07 0.07 0.06 0.06 0.05 0.07 0.08 0.07 0.07 0.06 0.07
0.07 0.07 0.07 0.08 0.08 0.08 0.09 0.10 0.10 0.10 0.11 0.11 0.10 0.10 0.12 0.12 0.13 0.14 0.16 0.17 0.17 0.16 0.13 0.13 0.12 0.10 0.08 0.07 0.07 0.06 0.06 0.05 0.06 0.08 0.08 0.09 0.09 0.10
0.07 0.07 0.07 0.07 0.08 0.10 0.10 0.10 0.10 0.10 0.10 0.10 0.10 0.11 0.12 0.13 0.14 0.16 0.17 0.17 0.16 0.15 0.13 0.11 0.10 0.08 0.07 0.07 0.07 0.07 0.05 0.05 0.06 0.07 0.08 0.10 0.10 0.12
0.05 0.07 0.08 0.07 0.07 0.08 0.09 0.10 0.11 0.10 0.10 0.10 0.11 0.11 0.11 0.11 0.13 0.13 0.13 0.12 0.12 0.12 0.10 0.08 0.07 0.06 0.06 0.06 0.06 0.06 0.05 0.05 0.06 0.07 0.08 0.09 0.10 0.10
0.04 0.05 0.06 0.08 0.08 0.08 0.09 0.09 0.09 0.09 0.09 0.09 0.10 0.11 0.10 0.10 0.10 0.10 0.10 0.09 0.09 0.08 0.07 0.06 0.06 0.05 0.04 0.04 0.05 0.05 0.05 0.04 0.05 0.06 0.08 0.09 0.09 0.09
0.03 0.03 0.04 0.06 0.08 0.09 0.10 0.11 0.11 0.12 0.11 0.11 0.10 0.10 0.10 0.09 0.09 0.09 0.09 0.09 0.08 0.08 0.07 0.07 0.06 0.04 0.04 0.03 0.04 0.04 0.04 0.03 0.04 0.05 0.07 0.09 0.09 0.08
0.04 0.04 0.05 0.06 0.07 0.09 0.10 0.12 0.11 0.11 0.12 0.12 0.11 0.10 0.09 0.10 0.11 0.11 0.11 0.10 0.09 0.09 0.08 0.07 0.06 0.05 0.04 0.03 0.03 0.03 0.04 0.04 0.03 0.05 0.06 0.08 0.08 0.07
0.04 0.05 0.05 0.06 0.06 0.07 0.09 0.11 0.11 0.10 0.09 0.09 0.10 0.10 0.11 0.12 0.13 0.14 0.13 0.11 0.10 0.09 0.08 0.07 0.06 0.05 0.05 0.04 0.03 0.02 0.02 0.03 0.04 0.04 0.05 0.06 0.06 0.05
0.05 0.05 0.05 0.05 0.05 0.06 0.07 0.09 0.11 0.12 0.11 0.10 0.09 0.10 0.11 0.13 0.13 0.13 0.13 0.11 0.10 0.08 0.07 0.07 0.06 0.05 0.04 0.04 0.03 0.02 0.02 0.02 0.03 0.04 0.05 0.05 0.05 0.04
0.05 0.05 0.05 0.05 0.05 0.05 0.06 0.07 0.09 0.10 0.10 0.10 0.09 0.09 0.09 0.10 0.11 0.12 0.11 0.10 0.09 0.07 0.06 0.05 0.05 0.04 0.03 0.03 0.03 0.03 0.02 0.02 0.02 0.03 0.03 0.03 0.04 0.04
0.04 0.05 0.05 0.05 0.06 0.06 0.06 0.08 0.09 0.09 0.10 0.10 0.10 0.10 0.09 0.09 0.09 0.10 0.10 0.10 0.08 0.07 0.05 0.04 0.03 0.03 0.02 0.02 0.02 0.02 0.02 0.02 0.02 0.03 0.03 0.03 0.03 0.03
0.04 0.04 0.05 0.05 0.05 0.06 0.07 0.09 0.11 0.12 0.12 0.12 0.12 0.11 0.11 0.10 0.10 0.09 0.08 0.08 0.07 0.06 0.05 0.04 0.03 0.02 0.02 0.02 0.02 0.01 0.02 0.02 0.02 0.02 0.02 0.02 0.02 0.02
0.03 0.04 0.05 0.05 0.05 0.06 0.06 0.07 0.09 0.11 0.12 0.13 0.13 0.12 0.11 0.11 0.10 0.09 0.08 0.08 0.07 0.05 0.04 0.04 0.03 0.02 0.02 0.02 0.02 0.01 0.02 0.02 0.02 0.02 0.02 0.02 0.02 0.02
0.03 0.04 0.04 0.05 0.05 0.05 0.06 0.06 0.07 0.08 0.09 0.10 0.11 0.12 0.12 0.11 0.10 0.09 0.08 0.07 0.06 0.05 0.04 0.03 0.03 0.02 0.02 0.01 0.01 0.01 0.01 0.01 0.01 0.02 0.02 0.02 0.01 0.01
0.04 0.04 0.04 0.05 0.05 0.05 0.06 0.06 0.07 0.07 0.08 0.08 0.09 0.09 0.09 0.09 0.09 0.08 0.07 0.06 0.06 0.05 0.04 0.03 0.03 0.02 0.02 0.01 0.01 0.01 0.01 0.01 0.01 0.01 0.01 0.01 0.01 0.01
MSLP
1007.71 1007.83 1008.09 1008.47 1008.97 1009.55 1010.20 1010.89 1011.61 1012.32 1013.01 1013.67 1014.29 1014.86 1015.38 1015.87 1016.32 1016.75 1017.17 1017.60 1018.03 1018.46 1018.90 1019.33 1019.73 1020.08 1020.37 1020.55 1020.61 1020.53 1020.30 1019.94 1019.45 1018.86 1018.21 1017.57 1016.99 1016.51
1006.62 1006.63 1006.79 1007.10 1007.56 1008.14 1008.82 1009.57 1010.37 1011.19 1012.01 1012.80 1013.55 1014.25 1014.90 1015.49 1016.05 1016.57 1017.06 1017.54 1018.02 1018.48 1018.93 1019.36 1019.75 1020.07 1020.31 1020.44 1020.44 1020.30 1020.01 1019.59 1019.06 1018.44 1017.79 1017.16 1016.61 1016.17
1005.65 1005.54 1005.59 1005.81 1006.19 1006.73 1007.39 1008.17 1009.03 1009.93 1010.86 1011.77 1012.66 1013.51 1014.30 1015.03 1015.71 1016.34 1016.93 1017.49 1018.03 1018.53 1019.01 1019.44 1019.81 1020.10 1020.29 1020.36 1020.29 1020.07 1019.72 1019.24 1018.67 1018.05 1017.41 1016.81 1016.31 1015.94
1004.82 1004.59 1004.52 1004.62 1004.90 1005.37 1005.99 1006.75 1007.63 1008.58 1009.59 1010.62 1011.64 1012.62 1013.56 1014.43 1015.25 1016.01 1016.71 1017.37 1017.99 1018.55 1019.07 1019.52 1019.89 1020.15 1020.30 1020.31 1020.18 1019.90 1019.50 1018.98 1018.39 1017.77 1017.16 1016.62 1016.19 1015.89
1004.10 1003.76 1003.57 1003.55 1003.72 1004.08 1004.62 1005.34 1006.20 1007.18 1008.24 1009.34 1010.46 1011.57 1012.64 1013.65 1014.61 1015.50 1016.34 1017.11 1017.82 1018.47 1019.05 1019.54 1019.93 1020.19 1020.33 1020.31 1020.14 1019.83 1019.40 1018.87 1018.29 1017.69 1017.13 1016.66 1016.31 1016.10
1003.42 1002.99 1002.69 1002.55 1002.60 1002.84 1003.29 1003.93 1004.75 1005.71 1006.79 1007.95 1009.14 1010.35 1011.53 1012.67 1013.76 1014.78 1015.74 1016.64 1017.46 1018.21 1018.87 1019.43 1019.87 1020.18 1020.34 1020.33 1020.17 1019.87 1019.45 1018.94 1018.40 1017.86 1017.37 1016.97 1016.71 1016.58
1002.71 1002.19 1001.80 1001.55 1001.48 1001.61 1001.95 1002.51 1003.26 1004.19 1005.26 1006.44 1007.68 1008.96 1010.23 1011.47 1012.67 1013.82 1014.90 1015.92 1016.86 1017.72 1018.49 1019.14 1019.67 1020.06 1020.28 1020.34 1020.24 1019.99 1019.63 1019.19 1018.71 1018.25 1017.84 1017.53 1017.35 1017.30
1001.88 1001.29 1000.81 1000.46 1000.28 1000.31 1000.55 1001.02 1001.70 1002.58 1003.63 1004.81 1006.09 1007.42 1008.76 1010.09 1011.39 1012.64 1013.84 1014.97 1016.02 1017.00 1017.88 1018.65 1019.30 1019.79 1020.13 1020.29 1020.29 1020.15 1019.88 1019.54 1019.17 1018.80 1018.49 1018.27 1018.16 1018.17
1000.87 1000.22 999.65 999.22 998.95 998.88 999.04 999.43 1000.05 1000.89 1001.93 1003.11 1004.41 1005.78 1007.18 1008.59 1009.97 1011.31 1012.60 1013.84 1015.00 1016.09 1017.09 1017.98 1018.75 1019.37 1019.84 1020.14 1020.28 1020.27 1020.14 1019.93 1019.68 1019.42 1019.21 1019.07 1019.02 1019.08
999.68 998.96 998.32 997.81 997.47 997.33 997.42 997.75 998.34 999.15 1000.17 1001.37 1002.70 1004.11 1005.57 1007.05 1008.50 1009.92 1011.29 1012.61 1013.87 1015.05 1016.15 1017.16 1018.05 1018.80 1019.41 1019.86 1020.16 1020.31 1020.33 1020.26 1020.14 1020.01 1019.89 1019.82 1019.83 1019.91
998.36 997.57 996.87 996.30 995.90 995.70 995.75 996.05 996.61 997.42 998.45 999.67 1001.04 1002.50 1004.02 1005.56 1007.08 1008.57 1010.02 1011.40 1012.73 1013.98 1015.17 1016.26 1017.25 1018.12 1018.86 1019.46 1019.90 1020.21 1020.39 1020.47 1020.48 1020.45 1020.43 1020.43 1020.48 1020.58
997.04 996.19 995.43 994.81 994.36 994.13 994.15 994.43 994.98 995.80 996.85 998.10 999.51 1001.03 1002.61 1004.21 1005.80 1007.35 1008.85 1010.29 1011.66 1012.97 1014.20 1015.36 1016.42 1017.38 1018.22 1018.93 1019.51 1019.96 1020.28 1020.49 1020.63 1020.72 1020.78 1020.84 1020.93 1021.05
995.85 994.94 994.14 993.49 993.01 992.76 992.76 993.03 993.59 994.41 995.48 996.76 998.21 999.78 1001.41 1003.07 1004.71 1006.31 1007.85 1009.33 1010.73 1012.06 1013.32 1014.50 1015.60 1016.62 1017.53 1018.33 1019.01 1019.57 1020.01 1020.35 1020.60 1020.78 1020.92 1021.04 1021.16 1021.30
994.92 993.99 993.17 992.49 992.00 991.74 991.73 991.99 992.54 993.36 994.43 995.72 997.19 998.79 1000.46 1002.15 1003.83 1005.47 1007.04 1008.53 1009.95 1011.28 1012.54 1013.73 1014.84 1015.87 1016.82 1017.68 1018.42 1019.07 1019.61 1020.04 1020.39 1020.66 1020.87 1021.05 1021.21 1021.38
994.34 993.42 992.61 991.94 991.45 991.18 991.16 991.41 991.92 992.71 993.76 995.03 996.49 998.08 999.75 1001.46 1003.16 1004.81 1006.39 1007.89 1009.30 1010.63 1011.87 1013.05 1014.15 1015.18 1016.14 1017.01 1017.81 1018.51 1019.11 1019.63 1020.05 1020.40 1020.68 1020.92 1021.13 1021.32
994.13 993.25 992.48 991.85 991.39 991.13 991.09 991.31 991.78 992.52 993.50 994.71 996.11 997.66 999.30 1000.98 1002.66 1004.30 1005.88 1007.37 1008.77 1010.08 1011.31 1012.46 1013.54 1014.55 1015.50 1016.39 1017.20 1017.93 1018.59 1019.16 1019.65 1020.06 1020.40 1020.69 1020.95 1021.18
994.25 993.45 992.76 992.19 991.77 991.53 991.48 991.66 992.08 992.73 993.63 994.74 996.04 997.50 999.06 1000.68 1002.31 1003.92 1005.47 1006.95 1008.33 1009.63 1010.84 1011.97 1013.02 1014.02 1014.96 1015.83 1016.65 1017.40 1018.08 1018.69 1019.22 1019.69 1020.08 1020.42 1020.72 1021.00
994.57 993.89 993.30 992.83 992.48 992.27 992.23 992.38 992.73 993.29 994.08 995.06 996.24 997.57 999.03 1000.55 1002.11 1003.66 1005.17 1006.62 1007.98 1009.26 1010.46 1011.57 1012.62 1013.60 1014.52 1015.39 1016.20 1016.95 1017.65 1018.27 1018.84 1019.33 1019.77 1020.14 1020.48 1020.79
994.98 994.43 993.98 993.61 993.35 993.21 993.19 993.32 993.61 994.09 994.76 995.62 996.65 997.85 999.17 1000.58 1002.05 1003.53 1004.98 1006.39 1007.74 1009.00 1010.19 1011.29 1012.33 1013.30 1014.21 1015.06 1015.87 1016.61 1017.30 1017.94 1018.51 1019.02 1019.47 1019.87 1020.23 1020.56
995.37 994.96 994.64 994.40 994.24 994.17 994.20 994.34 994.61 995.02 995.59 996.33 997.24 998.30 999.49 1000.78 1002.14 1003.53 1004.93 1006.29 1007.61 1008.86 1010.04 1011.14 1012.17 1013.13 1014.03 1014.87 1015.66 1016.39 1017.07 1017.69 1018.25 1018.76 1019.21 1019.62 1019.99 1020.33
995.70 995.41 995.21 995.10 995.05 995.08 995.17 995.34 995.61 995.99 996.50 997.15 997.95 998.89 999.96 1001.14 1002.40 1003.70 1005.02 1006.34 1007.62 1008.85 1010.01 1011.11 1012.13 1013.09 1013.97 1014.80 1015.56 1016.27 1016.92 1017.52 1018.06 1018.55 1018.99 1019.38 1019.74 1020.08
995.98 995.78 995.69 995.68 995.74 995.86 996.03 996.26 996.56 996.94 997.43 998.03 998.75 999.60 1000.57 1001.65 1002.81 1004.02 1005.27 1006.53 1007.76 1008.95 1010.10 1011.17 1012.19 1013.13 1014.00 1014.80 1015.54 1016.22 1016.84 1017.40 1017.91 1018.37 1018.78 1019.16 1019.50 1019.82
996.28 996.15 996.13 996.20 996.34 996.54 996.79 997.08 997.43 997.84 998.33 998.91 999.60 1000.39 1001.28 1002.27 1003.34 1004.47 1005.64 1006.83 1008.00 1009.15 1010.25 1011.30 1012.29 1013.20 1014.05 1014.83 1015.54 1016.19 1016.77 1017.30 1017.78 1018.20 1018.59 1018.93 1019.25 1019.56
Thickness
5584 5582 5580 5579 5576 5574 5570 5567 5564 5566 5569 5569 5563 5561 5556 5553 5550 5547 5547 5546 5544 5542 5541 5540 5541 5541 5540 5540 5539 5539 5538 5538 5539 5541 5543 5544 5545 5547
5574 5573 5571 5569 5567 5564 5561 5558 5556 5553 5555 5557 5553 5549 5545 5543 5541 5539 5537 5537 5536 5534 5533 5532 5532 5532 5531 5531 5531 5530 5530 5530 5531 5533 5535 5537 5539 5540
5564 5564 5563 5561 5558 5556 5553 5550 5547 5544 5543 5543 5538 5535 5532 5531 5530 5529 5527 5527 5526 5525 5524 5523 5523 5522 5523 5522 5522 5521 5521 5523 5524 5526 5528 5531 5532 5534
5555 5554 5553 5551 5549 5546 5543 5541 5538 5535 5532 5530 5526 5522 5520 5519 5518 5518 5517 5517 5517 5516 5514 5514 5513 5513 5513 5514 5513 5513 5514 5515 5518 5520 5522 5525 5527 5527
5546 5544 5544 5541 5539 5537 5533 5531 5528 5525 5522 5519 5516 5512 5509 5506 5505 5505 5505 5505 5507 5506 5504 5504 5504 5504 5505 5505 5505 5506 5507 5508 5511 5513 5515 5518 5520 5521
5537 5535 5533 5531 5530 5527 5524 5522 5519 5516 5513 5509 5505 5501 5499 5496 5494 5494 5494 5494 5495 5495 5495 5495 5494 5495 5495 5496 5496 5498 5499 5501 5503 5506 5508 5510 5512 5514
5528 5526 5524 5521 5519 5517 5515 5513 5510 5507 5505 5501 5496 5492 5490 5487 5486 5485 5484 5483 5483 5484 5485 5485 5485 5485 5485 5486 5487 5489 5491 5493 5496 5499 5501 5503 5505 5506
5519 5518 5515 5513 5510 5508 5505 5502 5500 5498 5496 5492 5489 5486 5484 5481 5480 5477 5475 5474 5474 5473 5474 5475 5475 5476 5476 5478 5479 5481 5482 5484 5488 5491 5494 5496 5498 5499
5508 5507 5506 5503 5501 5499 5496 5493 5491 5489 5485 5483 5480 5479 5477 5475 5473 5470 5468 5467 5467 5465 5464 5464 5464 5466 5467 5468 5470 5471 5474 5477 5480 5483 5486 5488 5490 5491
5498 5497 5495 5493 5491 5488 5487 5485 5483 5480 5477 5474 5472 5471 5469 5467 5465 5464 5461 5456 5454 5453 5454 5454 5454 5455 5456 5458 5459 5462 5465 5468 5471 5474 5476 5479 5481 5483
5488 5487 5485 5483 5481 5478 5477 5475 5474 5472 5468 5465 5463 5461 5460 5458 5456 5454 5451 5449 5446 5444 5443 5445 5444 5445 5446 5448 5450 5452 5455 5458 5461 5464 5466 5469 5471 5473
5479 5478 5475 5473 5471 5468 5467 5467 5465 5463 5460 5457 5454 5452 5450 5449 5447 5446 5445 5444 5440 5437 5435 5436 5436 5437 5438 5438 5441 5443 5446 5448 5450 5453 5456 5459 5461 5463
5469 5468 5466 5463 5460 5459 5458 5458 5457 5455 5452 5449 5446 5443 5441 5439 5438 5436 5436 5437 5435 5432 5430 5429 5429 5430 5431 5430 5431 5433 5436 5439 5441 5443 5446 5449 5451 5453
5460 5458 5455 5452 5450 5448 5447 5448 5446 5444 5442 5440 5437 5434 5432 5430 5428 5426 5426 5426 5426 5425 5423 5423 5423 5423 5423 5424 5424 5425 5427 5429 5432 5434 5436 5439 5441 5442
5450 5447 5444 5441 5439 5438 5437 5437 5436 5435 5432 5430 5428 5424 5421 5420 5418 5416 5415 5415 5415 5414 5414 5415 5416 5416 5417 5418 5417 5417 5418 5419 5421 5424 5426 5428 5430 5433
5440 5437 5434 5431 5429 5427 5426 5426 5425 5423 5422 5420 5417 5413 5411 5410 5409 5408 5407 5407 5406 5404 5403 5405 5407 5409 5409 5409 5410 5410 5410 5411 5411 5413 5416 5418 5420 5422
5431 5428 5425 5421 5419 5418 5416 5415 5414 5412 5411 5409 5407 5405 5402 5401 5400 5399 5399 5399 5399 5398 5396 5396 5397 5398 5399 5400 5400 5402 5402 5402 5404 5405 5407 5409 5411 5413
5421 5419 5415 5412 5409 5408 5406 5405 5403 5401 5400 5399 5398 5397 5395 5393 5392 5391 5391 5392 5393 5391 5390 5389 5389 5390 5389 5388 5389 5393 5394 5394 5395 5396 5398 5400 5402 5403
5411 5409 5406 5403 5399 5397 5395 5393 5391 5390 5389 5388 5388 5387 5386 5385 5385 5385 5384 5384 5384 5383 5381 5382 5383 5385 5388 5387 5382 5382 5385 5386 5387 5388 5389 5391 5393 5394
5400 5398 5395 5392 5390 5387 5385 5383 5381 5379 5378 5378 5378 5378 5377 5377 5377 5377 5377 5376 5375 5374 5373 5373 5374 5377 5380 5380 5377 5374 5375 5377 5379 5379 5380 5381 5382 5383
5390 5387 5385 5382 5380 5378 5376 5373 5371 5370 5369 5368 5368 5368 5368 5368 5368 5368 5368 5367 5366 5367 5367 5366 5365 5365 5366 5367 5367 5366 5365 5366 5369 5371 5371 5372 5373 5375
5380 5377 5375 5372 5370 5368 5366 5364 5362 5360 5359 5358 5358 5358 5358 5358 5359 5359 5359 5359 5359 5359 5358 5356 5355 5356 5358 5361 5361 5358 5357 5356 5358 5359 5361 5364 5367 5369
5369 5367 5365 5362 5360 5358 5356 5354 5352 5351 5350 5349 5349 5349 5348 5348 5349 5350 5350 5350 5350 5349 5349 5348 5348 5348 5349 5350 5351 5350 5348 5348 5350 5351 5351 5353 5355 5358